Wind_Speed
30 30 30 30 31 32 33 34 35 35 35 34 34 34 34 33 32 33 33 33 33 33 32 32 30 28 27 26 25 25 25 25 25 26 26 27 28 29
34 33 33 33 33 33 33 33 34 36 36 34 35 35 35 34 34 34 33 32 33 33 31 31 29 27 26 26 26 25 25 25 25 26 26 27 28 29
37 36 36 35 35 34 34 35 34 34 34 34 35 35 34 34 34 34 32 31 31 30 29 29 27 25 24 24 24 24 25 25 25 26 27 27 28 29
37 37 37 38 38 37 36 35 35 34 33 33 34 33 33 32 31 31 30 30 30 28 26 25 23 23 23 23 24 24 25 25 26 26 28 28 28 29
34 35 35 35 36 36 35 35 34 34 33 32 32 31 30 30 29 28 27 26 25 24 23 22 21 21 21 22 23 23 24 25 25 26 27 27 28 29
30 31 32 32 32 31 32 32 31 31 31 30 29 28 27 26 25 24 22 21 20 19 19 19 19 20 20 21 22 23 23 24 25 25 26 27 27 28
26 27 27 28 28 28 27 26 26 26 26 25 25 24 22 21 20 19 18 18 18 17 17 18 18 19 19 20 21 21 22 23 23 24 25 26 27 28
22 23 24 23 24 25 25 24 22 21 21 21 20 19 17 17 16 16 16 16 16 16 16 16 17 18 18 19 19 20 21 22 22 23 24 25 26 27
19 19 20 20 21 23 23 22 21 19 18 18 17 17 16 15 15 15 14 14 14 14 15 15 16 16 17 17 17 18 19 20 21 21 22 23 23 24
18 17 18 19 19 20 19 18 18 18 17 17 17 16 15 14 14 14 13 13 13 13 13 14 14 15 15 15 16 17 18 18 19 19 20 20 21 22
16 17 17 18 18 18 18 18 17 17 16 16 15 14 14 14 13 13 12 12 12 12 12 12 12 12 12 13 13 14 15 15 16 16 17 17 19 20
14 15 16 17 18 18 18 18 17 16 15 15 14 14 14 13 13 12 11 11 11 10 10 10 9 9 10 10 10 11 12 12 13 13 14 15 16 16
12 14 15 16 17 17 17 17 16 15 15 14 14 14 13 12 12 11 10 10 9 9 8 7 7 7 7 7 8 8 8 9 10 11 12 13 14 15
11 12 14 16 17 17 17 16 15 15 14 14 13 13 12 11 10 10 9 8 8 7 6 6 5 5 5 5 5 6 7 8 9 10 10 12 13 15
9 11 14 14 16 16 16 15 15 14 14 13 12 12 11 10 9 9 9 8 7 6 5 5 4 4 3 3 4 5 6 7 8 9 10 12 13 14
7 10 13 14 14 14 15 15 15 14 14 13 12 11 10 9 9 9 8 8 7 6 5 4 3 2 2 2 4 5 6 7 8 9 10 11 13 14
10 11 13 14 14 14 14 14 13 13 13 12 12 11 10 10 9 9 8 8 7 6 4 3 2 1 1 2 3 5 6 7 8 9 10 12 12 13
14 15 15 15 14 14 14 13 13 13 13 13 12 11 11 11 10 9 8 8 7 6 4 3 2 1 1 2 4 5 6 7 9 10 11 12 13 14
17 16 16 15 15 14 14 14 14 14 13 13 12 12 11 11 10 9 9 7 6 5 4 2 1 1 2 3 5 6 7 8 9 11 12 12 13 14
19 18 17 16 15 15 15 14 14 14 13 13 13 12 11 11 10 9 7 6 5 4 3 2 1 1 3 4 5 7 8 9 10 11 12 13 14 15
19 18 18 17 16 16 15 14 14 14 14 13 12 12 11 10 9 7 6 6 5 4 2 1 1 2 4 5 6 7 8 9 10 11 13 14 15 16
19 19 18 17 17 16 16 15 15 14 13 13 12 11 10 9 8 7 6 5 4 3 1 1 2 3 4 6 7 8 9 10 11 12 13 14 15 16
18 17 17 17 16 16 15 15 14 13 13 12 11 10 9 8 8 7 6 4 3 1 1 2 3 4 5 7 8 9 10 11 12 13 14 15 16 17
Wind_Direction
251 253 254 254 253 252 252 250 248 247 248 252 254 255 256 258 258 261 261 262 262 262 263 264 265 266 266 268 270 272 273 274 275 276 276 276 276 276
250 251 252 253 253 253 253 254 252 249 250 251 253 254 256 258 260 262 261 261 262 261 262 263 263 264 266 268 269 272 274 275 276 278 279 278 278 278
251 251 251 252 253 253 254 254 255 252 252 251 252 256 259 258 259 260 259 260 260 259 259 260 260 263 265 269 271 274 275 276 278 278 280 280 280 279
251 251 251 252 252 252 254 254 254 255 254 253 253 255 256 256 256 259 260 259 258 257 257 257 259 262 266 270 273 275 276 278 279 281 281 280 280 281
248 248 249 250 248 250 251 252 252 253 252 251 252 253 254 253 256 257 257 258 255 253 255 257 259 263 268 272 274 276 278 280 281 283 283 282 281 281
246 246 246 246 246 246 246 248 248 248 248 248 248 249 250 251 252 251 251 251 250 251 252 256 261 265 270 273 275 278 281 282 284 285 286 285 284 283
244 244 245 243 241 241 240 241 241 241 241 241 242 244 244 243 242 240 240 241 244 245 251 255 260 265 270 274 278 280 282 285 285 286 287 288 287 286
241 240 237 234 234 235 235 234 235 233 232 232 231 231 232 231 230 231 234 237 242 246 253 258 264 268 273 276 279 281 284 286 287 288 290 291 291 290
235 233 231 228 228 229 226 223 223 221 221 221 219 220 221 221 222 225 231 238 244 249 255 261 266 271 275 278 281 285 287 290 292 293 294 295 296 297
235 228 225 221 219 217 214 214 214 213 212 212 212 213 215 217 222 227 232 238 244 249 255 262 267 272 277 281 284 287 289 292 296 299 301 302 303 303
233 227 222 217 214 211 209 209 209 209 208 209 212 214 218 222 226 230 234 240 244 249 255 263 269 275 279 283 287 291 296 301 302 305 309 311 312 313
231 223 217 211 207 208 208 205 205 207 207 209 211 215 217 220 226 231 234 238 243 248 254 262 268 275 282 287 293 299 304 309 312 315 319 324 327 330
227 218 211 206 205 205 204 204 204 206 207 208 210 213 217 221 224 228 231 233 236 241 249 257 266 276 283 292 300 306 312 321 326 330 334 339 344 347
217 212 206 202 201 200 201 202 201 202 201 203 207 210 213 217 219 220 223 223 225 229 234 242 254 270 285 296 305 317 327 333 338 342 347 352 356 360
197 196 193 191 193 191 190 192 194 196 196 197 200 201 203 205 207 207 206 204 203 207 213 223 241 260 278 297 319 332 340 346 351 355 357 360 2 5
165 173 176 177 178 180 181 182 184 185 186 187 189 191 193 192 192 190 188 186 188 193 197 207 222 237 264 311 333 344 352 357 360 1 0 1 1 3
127 145 153 159 164 167 169 173 175 177 177 178 179 181 183 182 180 178 175 173 171 170 171 171 168 160 344 347 352 355 356 357 358 357 358 358 359 360
108 124 135 143 149 154 158 161 165 168 168 167 167 169 169 167 164 162 161 161 160 159 157 151 140 105 18 358 353 351 351 352 352 352 352 353 354 355
98 109 120 129 136 141 145 149 152 153 153 155 156 158 158 157 156 155 154 154 154 155 154 148 133 78 11 356 351 350 349 350 350 350 350 349 348 349
92 100 109 118 125 130 133 137 140 143 146 148 149 150 150 151 151 151 153 154 154 151 146 137 115 12 349 347 347 347 348 347 346 346 346 345 344 345
89 96 103 110 117 122 127 130 134 136 139 141 143 144 145 146 147 148 149 150 149 148 146 137 12 341 337 340 343 344 344 343 343 341 341 342 342 343
86 92 98 104 110 116 120 124 128 131 134 136 138 140 141 142 143 143 144 145 144 142 128 33 348 340 339 340 340 339 338 337 337 338 340 341 342 342
85 90 95 100 105 110 115 119 123 127 130 132 133 135 137 138 140 142 143 142 138 130 345 328 329 330 330 331 331 332 334 335 335 337 338 339 339 339
Height
5825 5827 5828 5830 5831 5832 5834 5836 5838 5839 5841 5842 5844 5845 5846 5848 5849 5850 5851 5851 5852 5852 5852 5852 5852 5853 5853 5852 5852 5851 5851 5850 5848 5847 5846 5844 5843 5841
5816 5818 5820 5821 5823 5824 5825 5827 5829 5830 5832 5833 5835 5837 5838 5839 5841 5841 5842 5843 5843 5844 5844 5845 5845 5845 5846 5846 5845 5845 5844 5843 5842 5841 5839 5838 5836 5835
5807 5809 5811 5812 5814 5816 5817 5819 5820 5822 5823 5825 5827 5828 5830 5831 5832 5833 5834 5835 5835 5836 5837 5837 5838 5838 5839 5839 5839 5839 5838 5837 5836 5835 5833 5832 5830 5828
5797 5799 5801 5803 5805 5807 5809 5810 5812 5813 5815 5816 5818 5820 5821 5823 5824 5825 5826 5827 5828 5828 5829 5830 5831 5832 5833 5833 5833 5833 5832 5831 5830 5828 5827 5825 5823 5821
5788 5789 5791 5793 5796 5798 5800 5802 5803 5805 5807 5808 5810 5812 5813 5815 5816 5818 5819 5820 5820 5822 5823 5825 5826 5827 5827 5827 5827 5827 5826 5825 5824 5822 5820 5818 5816 5814
5779 5780 5782 5784 5787 5789 5791 5793 5795 5797 5799 5801 5803 5804 5806 5808 5810 5811 5813 5814 5815 5817 5818 5820 5821 5822 5822 5822 5821 5821 5820 5819 5817 5816 5814 5812 5810 5807
5771 5772 5774 5777 5779 5781 5784 5786 5788 5790 5792 5794 5796 5798 5800 5802 5804 5806 5808 5810 5811 5813 5814 5815 5816 5817 5817 5816 5816 5815 5814 5813 5811 5810 5808 5805 5803 5801
5764 5766 5768 5770 5772 5775 5777 5780 5782 5784 5786 5788 5790 5793 5795 5797 5800 5802 5804 5806 5807 5809 5810 5811 5812 5812 5812 5812 5811 5810 5809 5808 5806 5804 5802 5799 5796 5794
5758 5760 5762 5764 5766 5769 5771 5774 5777 5779 5782 5784 5786 5789 5791 5794 5796 5798 5801 5802 5804 5805 5806 5807 5808 5808 5808 5807 5806 5805 5804 5803 5801 5799 5796 5793 5790 5787
5753 5755 5757 5759 5761 5764 5767 5770 5772 5775 5778 5781 5783 5786 5788 5791 5793 5796 5797 5799 5801 5802 5803 5804 5804 5804 5804 5803 5802 5801 5800 5798 5796 5793 5791 5788 5785 5782
5748 5749 5752 5754 5757 5760 5763 5766 5769 5772 5775 5778 5781 5783 5786 5788 5791 5793 5795 5796 5798 5799 5800 5800 5800 5800 5800 5799 5798 5797 5796 5794 5791 5789 5787 5784 5780 5777
5743 5744 5746 5749 5753 5756 5759 5763 5766 5769 5772 5775 5778 5781 5784 5786 5788 5790 5792 5794 5795 5796 5797 5797 5797 5797 5797 5796 5795 5794 5792 5790 5788 5786 5783 5780 5776 5773
5738 5740 5743 5746 5749 5753 5757 5760 5764 5767 5770 5773 5776 5779 5781 5784 5786 5788 5789 5791 5793 5794 5794 5795 5795 5795 5795 5794 5793 5791 5790 5788 5786 5783 5780 5777 5774 5770
5736 5738 5740 5743 5747 5751 5755 5758 5762 5766 5769 5772 5775 5777 5780 5782 5784 5786 5787 5789 5790 5791 5792 5793 5793 5793 5793 5792 5791 5790 5788 5786 5784 5781 5778 5775 5772 5768
5734 5736 5739 5742 5746 5750 5754 5757 5761 5765 5768 5771 5774 5776 5778 5780 5782 5784 5786 5787 5788 5790 5790 5791 5792 5791 5791 5791 5790 5788 5786 5784 5782 5780 5777 5774 5771 5767
5732 5735 5738 5742 5746 5749 5753 5757 5761 5764 5767 5770 5773 5775 5777 5779 5781 5783 5785 5786 5787 5789 5789 5790 5790 5790 5790 5789 5789 5787 5785 5783 5781 5779 5776 5773 5770 5766
5734 5737 5740 5744 5747 5751 5754 5758 5761 5764 5767 5770 5773 5775 5777 5779 5781 5782 5784 5786 5787 5788 5789 5789 5789 5789 5789 5788 5787 5786 5784 5782 5780 5778 5775 5772 5769 5766
5739 5741 5744 5747 5750 5753 5757 5760 5763 5766 5768 5771 5773 5775 5778 5779 5781 5783 5784 5786 5787 5788 5788 5789 5789 5789 5789 5788 5787 5785 5783 5781 5779 5776 5774 5771 5768 5765
5747 5748 5749 5752 5755 5757 5760 5762 5765 5768 5770 5772 5774 5777 5779 5780 5782 5784 5785 5786 5787 5788 5789 5789 5789 5788 5788 5787 5786 5784 5782 5780 5778 5775 5772 5769 5766 5763
5754 5755 5756 5757 5759 5761 5764 5766 5768 5770 5772 5774 5776 5778 5780 5782 5783 5785 5786 5787 5788 5788 5789 5789 5788 5788 5787 5786 5785 5783 5781 5778 5776 5773 5771 5768 5764 5761
5762 5762 5762 5763 5765 5766 5768 5770 5772 5773 5775 5777 5779 5781 5782 5784 5785 5786 5787 5788 5788 5789 5789 5788 5788 5787 5786 5785 5783 5781 5779 5777 5774 5772 5769 5766 5763 5759
5770 5769 5769 5770 5770 5771 5773 5774 5775 5777 5778 5780 5781 5783 5784 5785 5786 5787 5788 5788 5789 5789 5788 5788 5787 5786 5785 5783 5781 5779 5777 5775 5772 5769 5766 5763 5760 5756
5777 5776 5776 5776 5776 5777 5777 5778 5779 5780 5781 5783 5784 5785 5786 5787 5787 5788 5788 5789 5788 5788 5788 5787 5786 5785 5783 5782 5780 5778 5775 5773 5770 5767 5764 5761 5758 5754